When you browse on this site, cookies collect data to enhance your experience and personalize the content and advertising you see.
Visit our Privacy Policy to learn more. By continuing to use the site, you agree to this use of cookies and data.
  • In Lithuania
  • List of Countries
  • For 7 days
  • Water Temperature
  • Weather Map
  • Weather Widgets
  • user-avatar
    Login

    Hourly Weather Otradnyy

    Today, 19 August, Monday

    Time Temperature Precipitation Wind Pressure Humidity
    00:00 +24°C° 0.3 mm 2 mps 758 mmHg 83%
    01:00 +23°C° 0.1 mm 2 mps 758 mmHg 84%
    02:00 +23°C° 0.1 mm 2 mps 758 mmHg 86%
    03:00 +23°C° 0.1 mm 2 mps 758 mmHg 87%
    04:00 +23°C° 0 mm 2 mps 758 mmHg 88%
    05:00 +23°C° 0 mm 2 mps 758 mmHg 88%
    06:00 +23°C° 0 mm 2 mps 759 mmHg 88%
    07:00 +24°C° 0 mm 2 mps 759 mmHg 80%
    08:00 +26°C° 0 mm 2 mps 759 mmHg 72%
    09:00 +28°C° 0 mm 2 mps 759 mmHg 64%
    10:00 +30°C° 0 mm 3 mps 759 mmHg 57%
    11:00 +31°C° 0 mm 3 mps 759 mmHg 50%
    12:00 +34°C° 0 mm 3 mps 759 mmHg 44%
    13:00 +35°C° 0 mm 3 mps 759 mmHg 41%
    14:00 +36°C° 0 mm 3 mps 759 mmHg 39%
    15:00 +36°C° 0 mm 3 mps 759 mmHg 36%
    16:00 +36°C° 0 mm 3 mps 759 mmHg 37%
    17:00 +36°C° 0 mm 3 mps 759 mmHg 37%
    18:00 +35°C° 0 mm 3 mps 759 mmHg 38%
    19:00 +33°C° 0 mm 3 mps 759 mmHg 43%
    20:00 +31°C° 0 mm 3 mps 759 mmHg 47%
    21:00 +29°C° 0 mm 3 mps 760 mmHg 52%
    22:00 +28°C° 0 mm 3 mps 760 mmHg 53%
    23:00 +27°C° 0 mm 3 mps 760 mmHg 55%

    Tomorrow, 20 August, Tuesday

    Time Temperature Precipitation Wind Pressure Humidity
    00:00 +26°C° 0 mm 3 mps 760 mmHg 56%
    01:00 +26°C° 0 mm 3 mps 760 mmHg 56%
    02:00 +25°C° 0 mm 3 mps 760 mmHg 56%
    03:00 +24°C° 0 mm 3 mps 760 mmHg 56%
    04:00 +24°C° 0 mm 3 mps 760 mmHg 60%
    05:00 +24°C° 0 mm 3 mps 760 mmHg 63%
    06:00 +22°C° 0 mm 3 mps 760 mmHg 66%
    07:00 +25°C° 0 mm 3 mps 760 mmHg 60%
    08:00 +28°C° 0 mm 3 mps 760 mmHg 53%
    09:00 +30°C° 0 mm 3 mps 760 mmHg 47%
    10:00 +32°C° 0 mm 2 mps 760 mmHg 41%
    11:00 +35°C° 0 mm 2 mps 760 mmHg 35%
    12:00 +37°C° 0 mm 2 mps 760 mmHg 29%
    13:00 +37°C° 0 mm 2 mps 760 mmHg 27%
    14:00 +38°C° 0 mm 2 mps 760 mmHg 25%
    15:00 +39°C° 0 mm 2 mps 760 mmHg 23%
    16:00 +39°C° 0 mm 2 mps 759 mmHg 23%
    17:00 +38°C° 0 mm 2 mps 759 mmHg 23%
    18:00 +38°C° 0 mm 2 mps 759 mmHg 22%
    19:00 +36°C° 0 mm 2 mps 759 mmHg 23%
    20:00 +34°C° 0 mm 3 mps 759 mmHg 24%
    21:00 +31°C° 0 mm 3 mps 759 mmHg 25%
    22:00 +30°C° 0 mm 3 mps 759 mmHg 25%
    23:00 +29°C° 0 mm 4 mps 759 mmHg 26%

    Day after tomorrow, 21 August, Wednesday

    Time Temperature Precipitation Wind Pressure Humidity
    00:00 +28°C° 0 mm 4 mps 760 mmHg 27%
    01:00 +27°C° 0.1 mm 4 mps 760 mmHg 29%
    02:00 +27°C° 0.1 mm 3 mps 760 mmHg 32%
    03:00 +26°C° 0.1 mm 3 mps 760 mmHg 34%
    04:00 +25°C° 0 mm 3 mps 760 mmHg 35%
    05:00 +25°C° 0 mm 3 mps 760 mmHg 37%
    06:00 +24°C° 0 mm 3 mps 760 mmHg 38%
    07:00 +27°C° 0 mm 4 mps 760 mmHg 35%
    08:00 +29°C° 0 mm 4 mps 760 mmHg 32%
    09:00 +33°C° 0 mm 4 mps 761 mmHg 29%
    10:00 +35°C° 0 mm 5 mps 760 mmHg 25%
    11:00 +37°C° 0 mm 5 mps 760 mmHg 20%
    12:00 +40°C° 0 mm 6 mps 760 mmHg 16%
    13:00 +41°C° 0 mm 6 mps 759 mmHg 16%
    14:00 +41°C° 0 mm 6 mps 759 mmHg 15%
    15:00 +42°C° 0 mm 6 mps 759 mmHg 15%
    16:00 +41°C° 0 mm 6 mps 758 mmHg 16%
    17:00 +40°C° 0 mm 5 mps 758 mmHg 17%
    18:00 +40°C° 0 mm 4 mps 758 mmHg 18%
    19:00 +37°C° 0 mm 4 mps 758 mmHg 20%
    20:00 +34°C° 0 mm 4 mps 758 mmHg 23%
    21:00 +32°C° 0 mm 4 mps 758 mmHg 25%
    22:00 +32°C° 0 mm 5 mps 758 mmHg 28%
    23:00 +30°C° 0 mm 6 mps 758 mmHg 31%

    22 August, Thursday

    Time Temperature Precipitation Wind Pressure Humidity
    00:00 +30°C° 0 mm 6 mps 758 mmHg 34%
    01:00 +30°C° 0 mm 6 mps 759 mmHg 36%
    02:00 +29°C° 0 mm 5 mps 759 mmHg 39%
    03:00 +29°C° 0 mm 5 mps 759 mmHg 41%
    04:00 +28°C° 0 mm 5 mps 759 mmHg 44%
    05:00 +27°C° 0 mm 5 mps 759 mmHg 46%
    06:00 +26°C° 0 mm 4 mps 759 mmHg 49%
    07:00 +28°C° 0 mm 5 mps 759 mmHg 45%
    08:00 +30°C° 0 mm 6 mps 759 mmHg 40%
    09:00 +33°C° 0 mm 6 mps 759 mmHg 36%
    10:00 +35°C° 0 mm 6 mps 759 mmHg 32%
    11:00 +38°C° 0 mm 6 mps 759 mmHg 28%
    12:00 +40°C° 0 mm 7 mps 759 mmHg 23%
    13:00 +40°C° 0 mm 7 mps 758 mmHg 22%
    14:00 +41°C° 0 mm 7 mps 758 mmHg 20%
    15:00 +41°C° 0 mm 7 mps 758 mmHg 19%
    16:00 +40°C° 0 mm 6 mps 758 mmHg 21%
    17:00 +39°C° 0 mm 6 mps 758 mmHg 23%
    18:00 +39°C° 0 mm 6 mps 758 mmHg 24%
    19:00 +36°C° 0 mm 6 mps 758 mmHg 27%
    20:00 +34°C° 0 mm 5 mps 758 mmHg 29%
    21:00 +32°C° 0 mm 5 mps 758 mmHg 31%
    22:00 +30°C° 0 mm 5 mps 758 mmHg 34%
    23:00 +29°C° 0 mm 5 mps 758 mmHg 37%

    23 August, Friday

    Time Temperature Precipitation Wind Pressure Humidity
    00:00 +28°C° 0 mm 5 mps 758 mmHg 40%
    01:00 +28°C° 0 mm 4 mps 758 mmHg 40%
    02:00 +27°C° 0 mm 4 mps 758 mmHg 41%
    03:00 +27°C° 0 mm 4 mps 758 mmHg 42%
    04:00 +27°C° 0 mm 4 mps 758 mmHg 43%
    05:00 +26°C° 0 mm 4 mps 758 mmHg 44%
    06:00 +26°C° 0 mm 3 mps 758 mmHg 45%
    07:00 +27°C° 0 mm 4 mps 758 mmHg 41%
    08:00 +29°C° 0 mm 4 mps 758 mmHg 37%
    09:00 +32°C° 0 mm 4 mps 758 mmHg 33%
    10:00 +34°C° 0 mm 4 mps 758 mmHg 29%
    11:00 +36°C° 0 mm 4 mps 758 mmHg 26%
    12:00 +38°C° 0 mm 4 mps 758 mmHg 22%
    13:00 +38°C° 0 mm 4 mps 758 mmHg 21%
    14:00 +40°C° 0 mm 4 mps 758 mmHg 21%
    15:00 +40°C° 0 mm 4 mps 758 mmHg 20%
    16:00 +38°C° 0 mm 4 mps 758 mmHg 22%
    17:00 +38°C° 0 mm 3 mps 758 mmHg 24%
    18:00 +37°C° 0 mm 3 mps 758 mmHg 25%
    19:00 +35°C° 0 mm 3 mps 758 mmHg 28%
    20:00 +33°C° 0 mm 3 mps 758 mmHg 31%
    21:00 +30°C° 0 mm 3 mps 758 mmHg 34%
    22:00 +29°C° 0 mm 3 mps 758 mmHg 36%
    23:00 +29°C° 0 mm 2 mps 758 mmHg 37%

    24 August, Saturday

    Time Temperature Precipitation Wind Pressure Humidity
    00:00 +28°C° 0 mm 2 mps 758 mmHg 39%
    01:00 +27°C° 0 mm 2 mps 758 mmHg 40%
    02:00 +27°C° 0 mm 2 mps 758 mmHg 41%
    03:00 +26°C° 0 mm 2 mps 757 mmHg 42%
    04:00 +26°C° 0 mm 2 mps 757 mmHg 43%
    05:00 +26°C° 0 mm 2 mps 757 mmHg 44%
    06:00 +25°C° 0 mm 1 mps 758 mmHg 45%
    07:00 +28°C° 0 mm 2 mps 758 mmHg 40%
    08:00 +30°C° 0 mm 3 mps 758 mmHg 35%
    09:00 +34°C° 0 mm 3 mps 758 mmHg 30%
    10:00 +35°C° 0 mm 4 mps 758 mmHg 29%
    11:00 +36°C° 0 mm 5 mps 758 mmHg 27%
    12:00 +39°C° 0 mm 5 mps 758 mmHg 26%
    13:00 +38°C° 0 mm 6 mps 758 mmHg 28%
    14:00 +38°C° 0 mm 6 mps 758 mmHg 31%
    15:00 +36°C° 0 mm 7 mps 758 mmHg 33%
    16:00 +35°C° 0 mm 7 mps 758 mmHg 35%
    17:00 +34°C° 0 mm 7 mps 759 mmHg 37%
    18:00 +32°C° 0 mm 7 mps 759 mmHg 39%
    19:00 +29°C° 0 mm 7 mps 760 mmHg 43%
    20:00 +27°C° 0 mm 8 mps 760 mmHg 47%
    21:00 +24°C° 0 mm 8 mps 761 mmHg 52%
    22:00 +23°C° 0 mm 7 mps 761 mmHg 56%
    23:00 +22°C° 0 mm 7 mps 762 mmHg 61%
    Show more